Regional Weather Roundup
Issued by NWS Glasgow, MT

Home | Current Version | Previous Version | Text Only | Print | Product List | Glossary On
Versions: 1 2 3 4 5 6 7 8 9 10 11 12 13 14 15 16 17 18 19 20 21 22 23 24 25 26 27 28 29 30 31 32 33 34 35 36 37 38 39 40 41 42 43 44 45 46 47 48 49 50
000
ASUS45 KGGW 292315
RWRGGW
HOURLY REGIONAL WEATHER ROUNDUP FOR NORTHEAST MONTANA
NATIONAL WEATHER SERVICE GLASGOW MONTANA
500 PM MDT SUN MAY 29 2016

NOTE: "FAIR" INDICATES FEW OR NO CLOUDS BELOW 12,000 FEET WITH NO
SIGNIFICANT WEATHER AND/OR OBSTRUCTIONS TO VISISBILITY.

NORTHEAST MONTANA


CITY           SKY/WX    TMP DP  RH WIND       PRES   REMARKS
GLASGOW        SUNNY     75  36  24 SW15G22   29.92F
PLENTYWOOD       N/A     72  33  24 W14G24      N/A
WOLF POINT     SUNNY     78  37  22 W13       29.92F
JORDAN           N/A     76  38  25 NW8       29.93F
WINNETT          N/A     73  39  29 E3G13       N/A
SIDNEY         SUNNY     78  38  23 W16G23    29.92F
GLENDIVE       SUNNY     73  43  33 SW10      29.97S
MALTA            N/A     77  39  25 W10G21      N/A
SCOBEY           N/A     72  35  25 W18G25    29.93F
OPHEIM           N/A     64  34  32 W8        29.79F

FORT PECK REPORTS


CITY           SKY/WX    TMP DP  RH WIND       PRES   REMARKS
FORT PECK        N/A     72  51  47 S8          N/A
THE PINES        N/A     77  30  17 SW12        N/A

SOUTHEAST MONTANA


CITY           SKY/WX    TMP DP  RH WIND       PRES   REMARKS
BILLINGS       MOSUNNY   76  35  22 VRB5      29.94F
MILES CITY     MOSUNNY   77  41  27 VRB5      29.94F
BAKER          LGT RAIN  68  43  40 VRB3G26   29.99S
LIVINGSTON     CLOUDY    72  36  26 NW7       29.97F

CENTRAL MONTANA


CITY           SKY/WX    TMP DP  RH WIND       PRES   REMARKS
HAVRE          CLOUDY    71  39  31 W9        29.90F
LEWISTOWN      CLOUDY    69  34  27 VRB3      29.97F
GREAT FALLS    CLOUDY    70  34  26 SW17      29.94F
CUT BANK         N/A     61  38  42 SW17G25   29.96R
HELENA         PTSUNNY   72  38  29 NE16      29.95F
BUTTE          PTSUNNY   67  26  21 S10       30.01F
BOZEMAN        CLOUDY    72  36  26 NE6       29.97F

WESTERN MONTANA


CITY           SKY/WX    TMP DP  RH WIND       PRES   REMARKS
MISSOULA       MOSUNNY   70  42  36 VRB7      29.95F
KALISPELL      NOT AVBL

NORTH DAKOTA


CITY           SKY/WX    TMP DP  RH WIND       PRES   REMARKS
WILLISTON      SUNNY     78  33  19 W14       29.93F
DICKINSON      SUNNY     77  32  19 W10       29.93F
MINOT          MOSUNNY   78  38  23 W8        29.93F
BISMARCK       MOSUNNY   80  45  28 W6        29.94F

SOUTHERN SASKATCHEWAN


CITY           SKY/WX    TMP DP  RH WIND       PRES   REMARKS
REGINA         MOSUNNY   70  39  32 W10G21    29.88F
MOOSE JAW      PTSUNNY   72  41  33 W12G17    29.89F
ESTEVAN        MOSUNNY   73  39  29 SW16      29.91F
SWIFT CURRENT  MOSUNNY   68  39  34 W14G21    29.87F




USA.gov is the U.S. government's official web portal to all federal, state and local government web resources and services.